Weather History for Newport, VT

Change the Weather History Date:

Tuesday, February 5, 2013

  Actual Average Record
Temperature  
Mean Temperature 6 °F -  
Max Temperature 16 °F 22 °F 57 °F (1991)
Min Temperature -4 °F 2 °F -29 °F (1934)
Degree Days  
Heating Degree Days 59    
Moisture  
Dew Point -8 °F    
Average Humidity 52    
Maximum Humidity 74    
Minimum Humidity 26    
Precipitation  
Precipitation 0.00 in - - ()
Sea Level Pressure  
Sea Level Pressure 29.91 in    
Wind  
Wind Speed 2 mph (SSE)    
Max Wind Speed 7 mph    
Max Gust Speed -    
Visibility 10 miles    
Events      
Averages and records for this station are not official NWS values.
T = Trace of Precipitation, MM = Missing Value Source: NWS Daily Summary

Daily Weather History Graph

Daily Weather History Graph

Search for Another Location

Airport:

Trip Planner

Search our weather history database for the weather conditions in past years. The results will help you decide how hot, cold, wet, or windy it might be!

Date:

Astronomy

Feb. 05, 2013 Rise Set
Actual Time 7:03 AM EST 5:03 PM EST
Civil Twilight 6:32 AM EST 5:34 PM EST
Nautical Twilight 5:57 AM EST 6:08 PM EST
Astronomical Twilight 5:23 AM EST 6:43 PM EST
Moon 2:46 AM EST (2/5) 12:12 PM EST (2/5)
Length of Visible Light 11h 01m
Length of Day
9h 59m
Waning Crescent, 27% of the Moon is Illuminated
Feb 5
Waning Crescent
Feb 10
New
Feb 17
First Quarter
Feb 25
Full
Mar 4
Last Quarter

Hourly Weather History & Observations

Time (EST) Temp. Windchill Dew Point Humidity Pressure Visibility Wind Dir Wind Speed Gust Speed Precip Events Conditions
12:15 AM 3.4 °F - -10.8 °F 52% 29.86 in 10.0 mi Calm Calm - N/A   Clear
12:35 AM 0.7 °F - -9.4 °F 63% 29.86 in 10.0 mi Calm Calm - N/A   Clear
12:55 AM 2.1 °F -5.4 °F -9.0 °F 60% 29.86 in 10.0 mi WNW 3.5 mph - N/A   Clear
1:15 AM 3.2 °F - -11.2 °F 51% 29.86 in 10.0 mi Calm Calm - N/A   Clear
1:35 AM 0.9 °F - -10.3 °F 59% 29.87 in 10.0 mi Calm Calm - N/A   Clear
1:55 AM -0.4 °F - -9.8 °F 65% 29.88 in 10.0 mi Calm Calm - N/A   Clear
2:15 AM -0.0 °F - -9.0 °F 66% 29.88 in 10.0 mi Calm Calm - N/A   Clear
2:35 AM 2.1 °F -5.4 °F -10.3 °F 56% 29.89 in 10.0 mi North 3.5 mph - N/A   Clear
2:55 AM 0.7 °F -10.7 °F -9.0 °F 64% 29.88 in 10.0 mi NNW 5.8 mph - N/A   Clear
3:15 AM 1.0 °F - -9.4 °F 62% 29.89 in 10.0 mi Calm Calm - N/A   Clear
3:35 AM -1.8 °F - -10.3 °F 67% 29.89 in 10.0 mi Calm Calm - N/A   Clear
3:55 AM -1.7 °F - -9.6 °F 69% 29.90 in 10.0 mi Calm Calm - N/A   Clear
4:15 AM -0.9 °F -8.9 °F -8.7 °F 70% 29.90 in 10.0 mi WNW 3.5 mph - N/A   Clear
4:35 AM 0.5 °F -7.3 °F -9.6 °F 63% 29.90 in 10.0 mi WNW 3.5 mph - N/A   Clear
4:55 AM 0.5 °F - -11.2 °F 58% 29.91 in 10.0 mi Calm Calm - N/A   Clear
5:15 AM 0.5 °F -7.3 °F -11.2 °F 58% 29.91 in 10.0 mi WNW 3.5 mph - N/A   Clear
5:35 AM -2.9 °F - -10.3 °F 71% 29.91 in 10.0 mi Calm Calm - N/A   Clear
5:55 AM -2.6 °F - -9.4 °F 73% 29.92 in 10.0 mi Calm Calm - N/A   Clear
6:15 AM -1.7 °F - -9.9 °F 68% 29.92 in 10.0 mi Calm Calm - N/A   Clear
6:35 AM -2.2 °F -10.4 °F -9.9 °F 70% 29.92 in 10.0 mi West 3.5 mph - N/A   Clear
6:55 AM -4.2 °F - -10.5 °F 74% 29.93 in 10.0 mi Calm Calm - N/A   Clear
7:15 AM -3.1 °F - -10.3 °F 71% 29.94 in 10.0 mi Calm Calm - N/A   Clear
7:35 AM -2.2 °F - -10.1 °F 69% 29.95 in 10.0 mi Calm Calm - N/A   Clear
7:55 AM -1.3 °F - -8.3 °F 72% 29.95 in 10.0 mi Calm Calm - N/A   Clear
8:15 AM 1.0 °F - -9.0 °F 63% 29.96 in 10.0 mi Calm Calm - N/A   Clear
8:35 AM 1.6 °F -6.0 °F -8.0 °F 64% 29.97 in 10.0 mi East 3.5 mph - N/A   Clear
8:55 AM 1.8 °F -5.8 °F -7.8 °F 64% 29.97 in 10.0 mi East 3.5 mph - N/A   Clear
9:15 AM 2.8 °F -4.6 °F -7.2 °F 63% 29.97 in 10.0 mi SE 3.5 mph - N/A   Clear
9:35 AM 4.1 °F -5.1 °F -8.3 °F 56% 29.97 in 10.0 mi ESE 4.6 mph - N/A   Clear
9:55 AM 5.0 °F -2.1 °F -8.7 °F 53% 29.97 in 10.0 mi ESE 3.5 mph - N/A   Clear
10:15 AM 5.5 °F - -10.5 °F 48% 29.97 in 10.0 mi Calm Calm - N/A   Clear
10:35 AM 7.0 °F -3.3 °F -10.1 °F 46% 29.97 in 10.0 mi South 5.8 mph - N/A   Clear
11:15 AM 9.5 °F - -11.0 °F 39% 29.97 in 10.0 mi Calm Calm - N/A   Clear
11:35 AM 10.4 °F 2.2 °F -10.8 °F 38% 29.96 in 10.0 mi SSE 4.6 mph - N/A   Clear
11:55 AM 11.3 °F 1.9 °F -10.1 °F 38% 29.95 in 10.0 mi South 5.8 mph - N/A   Clear
12:15 PM 11.7 °F 2.3 °F -10.8 °F 36% 29.94 in 10.0 mi ESE 5.8 mph - N/A   Clear
12:35 PM 12.4 °F 6.3 °F -11.2 °F 34% 29.94 in 10.0 mi South 3.5 mph - N/A   Clear
12:55 PM 13.5 °F 4.4 °F -10.5 °F 34% 29.93 in 10.0 mi SE 5.8 mph - N/A   Clear
1:15 PM 13.8 °F - -11.9 °F 31% 29.93 in 10.0 mi Calm Calm - N/A   Clear
1:35 PM 15.4 °F 8.1 °F -9.8 °F 32% 29.92 in 10.0 mi SSE 4.6 mph - N/A   Clear
1:55 PM 15.3 °F - -10.1 °F 32% 29.92 in 10.0 mi Calm Calm - N/A   Clear
2:15 PM 16.3 °F 7.8 °F -11.7 °F 28% 29.92 in 10.0 mi South 5.8 mph - N/A   Clear
2:35 PM 16.5 °F 6.9 °F -11.6 °F 28% 29.91 in 10.0 mi South 6.9 mph - N/A   Clear
2:55 PM 16.3 °F - -13.0 °F 26% 29.91 in 10.0 mi Calm Calm - N/A   Clear
3:15 PM 16.5 °F - -11.6 °F 28% 29.90 in 10.0 mi Calm Calm - N/A   Clear
3:35 PM 16.9 °F 11.5 °F -11.4 °F 28% 29.90 in 10.0 mi South 3.5 mph - N/A   Clear
3:55 PM 16.2 °F - -12.1 °F 28% 29.90 in 10.0 mi Calm Calm - N/A   Clear
4:15 PM 16.0 °F 10.4 °F -10.7 °F 30% 29.91 in 10.0 mi SSW 3.5 mph - N/A   Clear
4:35 PM 16.3 °F - -9.9 °F 31% 29.91 in 10.0 mi Calm Calm - N/A   Clear
4:55 PM 15.3 °F - -11.2 °F 30% 29.90 in 10.0 mi Calm Calm - N/A   Scattered Clouds
5:15 PM 14.9 °F - -9.4 °F 33% 29.91 in 10.0 mi Calm Calm - N/A   Scattered Clouds
5:35 PM 13.3 °F 5.6 °F -2.9 °F 49% 29.91 in 10.0 mi NNW 4.6 mph - N/A   Clear
5:55 PM 12.2 °F 6.1 °F -2.4 °F 52% 29.91 in 10.0 mi North 3.5 mph - N/A   Scattered Clouds
6:15 PM 12.2 °F 6.1 °F -1.5 °F 54% 29.90 in 10.0 mi NNE 3.5 mph - N/A   Scattered Clouds
6:55 PM 13.5 °F 5.8 °F -1.1 °F 52% 29.89 in 10.0 mi North 4.6 mph - N/A   Overcast
7:15 PM 13.5 °F 7.5 °F -1.3 °F 52% 29.88 in 10.0 mi North 3.5 mph - N/A   Overcast
7:35 PM 13.6 °F 7.7 °F -2.4 °F 49% 29.88 in 10.0 mi NNW 3.5 mph - N/A   Overcast
7:55 PM 13.5 °F - -2.4 °F 49% 29.88 in 10.0 mi Calm Calm - N/A   Overcast
8:15 PM 12.9 °F - -1.8 °F 52% 29.88 in 10.0 mi Calm Calm - N/A   Overcast
8:35 PM 12.7 °F - -0.6 °F 55% 29.88 in 10.0 mi Calm Calm - N/A   Mostly Cloudy
8:55 PM 13.1 °F - -2.4 °F 50% 29.88 in 10.0 mi Calm Calm - N/A   Mostly Cloudy
9:15 PM 13.1 °F - -3.8 °F 47% 29.88 in 10.0 mi Calm Calm - N/A   Overcast
9:35 PM 13.5 °F - -3.5 °F 47% 29.89 in 10.0 mi Calm Calm - N/A   Overcast
9:55 PM 13.5 °F - -2.6 °F 49% 29.88 in 10.0 mi Calm Calm - N/A   Overcast
10:15 PM 13.1 °F - -2.7 °F 49% 29.88 in 10.0 mi Calm Calm - N/A   Overcast
10:35 PM 12.7 °F - -0.0 °F 57% 29.88 in 10.0 mi Calm Calm - N/A   Mostly Cloudy
10:55 PM 12.2 °F - 2.1 °F 64% 29.87 in 10.0 mi Calm Calm - N/A   Mostly Cloudy
11:15 PM 12.2 °F - 0.1 °F 59% 29.87 in 10.0 mi Calm Calm - N/A   Overcast
11:35 PM 12.2 °F 6.1 °F 2.5 °F 65% 29.86 in 10.0 mi SSW 3.5 mph - N/A   Overcast
11:55 PM 12.2 °F - 2.5 °F 65% 29.85 in 10.0 mi Calm Calm - N/A   Overcast